Wind_Speed
75 78 81 77 78 82 81 78 83 58 53 32 32 40 39 39 39 42 44 43 39 37 29 28 31 28 23 23 23 17 19 21 24 15 14 26 29 36 36 32 44 48 48 52
76 78 80 77 75 74 78 81 72 48 40 28 31 37 39 40 48 44 46 42 38 33 29 28 27 27 22 18 14 13 16 15 19 16 14 22 27 38 41 40 36 44 44 50
73 75 79 75 72 76 76 72 55 45 30 27 33 45 44 44 47 47 41 38 34 32 27 27 28 24 22 15 13 12 14 11 14 16 10 17 24 32 41 43 41 44 49 50
75 78 79 76 78 78 67 69 48 40 28 26 33 46 40 48 47 44 39 33 30 29 24 27 29 25 24 18 16 12 11 13 11 12 11 10 21 22 32 40 44 48 50 52
81 81 79 77 76 73 64 54 36 35 29 26 39 49 45 47 44 43 39 38 42 37 26 26 30 27 26 21 16 11 7 8 11 9 11 4 17 25 25 23 26 39 46 58
83 78 77 76 72 65 47 43 35 35 33 30 39 50 47 51 52 51 48 46 46 39 33 28 30 29 29 23 18 13 10 6 7 10 9 9 3 19 24 26 24 25 31 34
81 80 76 73 70 57 39 39 36 35 31 33 44 45 53 59 61 55 49 42 45 45 41 35 33 31 32 26 19 15 12 11 6 6 8 9 9 5 14 25 25 22 25 29
81 79 71 68 52 43 37 39 36 34 34 41 50 42 59 60 57 50 41 38 42 44 44 40 39 34 33 28 24 20 16 12 9 8 6 8 9 9 5 3 23 29 26 28
82 81 65 54 41 40 38 38 37 37 39 45 53 46 57 62 58 51 44 42 42 41 40 40 36 34 35 32 26 24 20 17 12 11 10 9 8 11 12 12 8 5 13 24
72 63 51 42 41 39 39 44 40 39 44 47 59 51 55 61 57 49 44 45 42 43 39 37 37 37 38 35 30 26 26 22 18 15 14 14 13 13 15 15 18 19 17 14
63 52 43 41 42 39 43 45 44 40 42 55 53 54 48 64 58 52 48 45 41 42 43 42 41 41 39 36 36 35 29 26 26 24 19 16 16 17 19 20 20 21 22 20
53 47 43 46 44 43 52 50 49 47 47 55 55 61 49 53 61 56 52 48 46 45 45 46 45 44 41 43 43 41 37 33 31 31 30 26 22 20 20 21 22 23 23 23
53 49 47 49 47 47 58 56 55 52 55 57 55 62 53 51 59 62 58 54 51 50 45 42 44 45 42 42 43 46 46 40 38 38 34 34 32 26 25 26 27 27 26 24
56 53 50 50 49 49 58 61 62 56 58 62 60 55 56 49 51 61 64 59 56 55 55 50 45 44 44 45 45 44 42 40 42 42 38 37 34 34 31 32 31 31 30 30
57 58 57 54 55 54 62 66 68 62 61 65 64 56 54 53 50 51 64 63 60 58 58 54 51 50 49 48 47 45 44 41 41 44 40 39 38 38 40 38 37 36 35 34
59 64 64 60 62 57 58 71 73 71 64 68 68 59 51 53 55 52 56 61 63 58 54 55 56 57 55 53 51 49 47 46 44 44 42 42 43 44 45 44 42 43 42 41
59 63 64 64 64 62 57 71 76 74 71 67 70 68 62 49 52 52 56 56 58 61 62 57 53 55 53 53 56 55 53 49 47 48 48 47 46 45 46 47 47 48 49 47
58 62 63 65 64 64 62 68 74 77 76 71 66 70 68 65 58 52 52 52 58 58 57 58 60 57 56 54 53 54 52 52 53 53 52 51 50 50 49 50 51 52 53 53
56 57 59 64 65 62 67 68 73 75 76 78 69 65 67 67 65 58 50 52 54 54 63 69 68 66 63 63 61 58 57 56 56 57 57 56 56 56 56 55 55 56 56 57
54 57 57 61 65 63 70 67 72 73 72 73 73 74 68 67 71 67 63 64 70 64 63 62 61 72 68 68 64 62 63 63 63 62 62 62 62 62 62 61 62 63 64 64
50 53 57 62 65 64 70 68 72 75 77 73 71 69 75 79 78 78 73 70 73 72 71 74 74 76 72 71 71 69 66 65 66 67 68 68 68 67 66 67 68 69 69 69
50 52 58 62 65 65 71 68 70 73 80 78 73 76 77 80 77 81 78 76 76 76 77 77 76 74 75 74 75 75 72 70 70 70 69 69 71 72 71 70 69 71 72 73
52 53 56 61 65 66 66 67 69 77 77 82 79 79 79 80 80 82 82 85 82 81 79 78 76 78 82 81 81 82 80 76 77 76 76 77 76 76 76 77 74 74 75 75
53 56 58 55 59 63 66 67 69 77 79 76 82 88 87 88 91 91 92 84 84 85 85 84 81 79 78 78 80 81 77 74 74 77 78 78 77 76 76 77 79 80 80 79
52 50 47 46 49 58 63 66 67 80 83 81 80 83 88 91 93 93 88 88 87 89 88 90 87 86 85 85 81 78 79 82 82 80 78 77 77 78 80 82 83 84 83 81
47 43 44 46 51 56 60 64 69 77 87 85 83 83 87 90 89 92 93 88 88 88 90 90 88 86 86 86 84 85 87 86 86 86 86 86 87 87 88 90 90 89 87 86
Wind_Direction
267 271 276 280 283 288 289 294 300 292 278 268 243 229 237 226 200 198 198 201 207 217 224 227 235 241 260 262 270 291 294 298 313 307 249 229 220 211 208 215 228 229 228 227
269 273 274 277 283 285 287 294 296 285 275 250 223 225 226 200 193 196 195 200 205 215 219 222 234 242 249 246 272 310 302 302 313 337 255 221 228 209 208 207 220 226 228 231
267 267 273 277 279 281 293 295 284 276 266 229 210 213 214 201 195 194 196 202 208 217 213 214 231 240 224 241 266 289 330 320 321 328 308 240 224 218 220 217 218 220 229 237
265 267 271 276 276 283 291 286 272 266 244 217 209 219 203 192 197 192 193 204 218 223 215 215 229 229 220 245 257 274 297 338 330 342 336 237 207 220 235 237 236 233 228 233
266 269 272 275 277 285 288 273 257 249 227 207 208 208 198 195 194 194 197 201 214 221 215 215 225 220 222 240 251 256 284 333 348 349 1 289 227 215 225 234 245 246 246 239
265 267 270 275 280 284 272 255 243 235 221 195 205 195 198 194 194 197 200 201 211 219 223 217 216 226 225 240 242 254 264 292 338 345 14 24 354 236 232 235 251 252 249 254
266 268 272 275 282 276 250 246 235 230 207 206 195 194 197 194 196 198 201 199 209 214 223 224 211 223 229 236 236 245 254 268 284 320 344 10 18 25 238 238 248 249 250 242
267 269 272 273 270 252 237 241 233 223 212 206 189 191 208 201 199 199 205 204 210 216 219 221 217 223 229 230 232 239 248 260 264 284 309 335 343 4 340 266 242 245 249 251
268 272 270 263 248 237 236 229 232 218 213 211 184 199 213 208 198 196 203 208 214 219 216 220 222 221 225 230 233 241 245 253 263 268 277 289 302 326 341 344 323 279 244 249
266 266 261 248 231 228 224 217 220 214 209 205 196 204 211 212 202 198 203 209 212 219 220 223 228 225 231 234 239 246 247 246 253 263 277 284 289 299 311 316 321 324 331 310
260 259 245 231 224 220 215 214 211 216 205 201 206 204 205 211 200 196 207 207 210 219 219 218 220 226 230 234 243 247 251 249 253 258 265 271 281 288 292 297 304 307 305 311
246 237 228 225 219 217 209 206 206 215 201 198 207 203 203 213 201 199 206 208 211 218 222 222 227 232 235 240 244 248 250 250 253 255 257 261 266 273 280 282 289 292 291 297
234 230 226 224 217 218 207 205 207 214 197 198 204 207 204 209 209 203 205 209 213 217 222 228 233 234 239 246 251 251 251 249 250 257 258 259 263 268 269 270 276 281 283 285
229 226 224 220 215 213 206 206 205 210 202 204 201 206 206 212 218 212 207 209 214 219 223 224 229 236 239 239 238 243 246 251 252 258 260 264 267 270 271 274 276 276 276 276
226 226 222 215 209 210 207 205 205 207 205 201 203 205 212 214 215 213 217 213 215 222 227 229 233 237 240 243 245 244 244 248 253 258 259 261 265 269 272 271 269 272 274 277
219 217 219 214 206 210 214 206 205 205 209 206 203 207 213 222 220 219 217 218 222 222 226 232 235 236 238 242 245 249 252 254 256 256 258 266 268 268 270 273 269 269 272 275
221 218 217 216 208 207 215 212 207 206 209 211 212 212 215 220 226 229 227 218 222 225 227 229 234 238 240 244 247 250 254 257 256 259 262 266 265 265 267 269 269 268 269 273
218 220 216 216 211 208 216 216 208 209 210 212 215 217 218 220 223 230 237 240 232 225 228 231 233 234 240 240 242 246 248 252 257 260 264 264 263 264 264 264 264 265 268 269
216 218 217 215 214 215 216 217 213 207 212 215 214 215 215 219 224 225 224 228 231 242 236 232 235 238 238 242 243 246 247 247 252 257 260 261 262 263 263 263 263 263 262 263
215 215 214 215 215 215 218 217 219 208 211 212 218 215 215 219 224 225 223 226 230 236 237 245 246 241 237 239 242 245 246 247 248 252 255 256 257 259 261 263 264 265 265 266
216 216 215 215 216 215 221 218 219 216 213 212 215 217 213 220 221 223 228 230 234 235 236 241 241 245 253 251 249 250 251 254 255 256 256 256 258 259 260 262 262 263 264 265
213 214 215 215 214 215 221 219 220 220 217 216 216 217 219 224 225 226 228 234 242 245 246 247 249 251 255 257 258 259 257 257 256 256 256 257 258 260 261 260 260 261 264 266
213 216 217 216 215 219 223 220 220 222 220 217 217 221 225 228 227 229 233 232 237 241 245 248 251 253 254 255 257 260 264 264 261 259 259 258 258 260 262 264 264 267 266 266
215 217 218 216 218 219 224 222 221 222 224 220 219 221 223 227 229 226 228 233 237 240 245 248 252 254 256 256 258 261 262 264 265 263 263 263 263 263 264 264 266 268 269 267
217 219 219 218 221 222 224 226 224 222 224 226 224 225 230 233 234 233 234 235 238 242 246 245 249 253 256 257 258 261 264 267 268 269 270 270 269 269 269 271 270 271 271 269
214 215 215 219 220 220 223 225 224 222 223 227 229 229 229 233 235 235 236 239 241 243 245 246 248 250 254 255 258 262 264 266 266 267 267 269 271 271 273 275 273 273 274 276
Height
10530 10530 10527 10529 10527 10529 10526 10520 10515 10510 10504 10514 10518 10519 10526 10538 10545 10549 10556 10566 10577 10583 10591 10598 10601 10606 10610 10610 10610 10607 10605 10602 10600 10596 10597 10598 10604 10611 10617 10621 10627 10632 10637 10641
10512 10512 10514 10514 10515 10514 10514 10509 10504 10499 10500 10506 10511 10517 10525 10535 10539 10544 10551 10560 10570 10578 10586 10594 10597 10601 10605 10606 10604 10602 10600 10598 10597 10593 10591 10594 10597 10605 10612 10617 10622 10626 10631 10634
10496 10497 10497 10501 10500 10501 10503 10498 10495 10489 10495 10501 10508 10510 10521 10530 10535 10540 10551 10558 10565 10572 10581 10589 10592 10597 10600 10601 10600 10599 10597 10594 10593 10590 10588 10589 10592 10598 10605 10611 10616 10620 10624 10628
10479 10481 10483 10485 10486 10490 10491 10484 10485 10484 10490 10497 10505 10508 10519 10528 10534 10540 10546 10555 10562 10567 10575 10584 10587 10591 10595 10596 10596 10595 10595 10592 10589 10588 10586 10586 10590 10594 10600 10605 10610 10614 10618 10620
10460 10465 10469 10470 10472 10476 10476 10472 10476 10476 10483 10492 10500 10508 10518 10526 10532 10536 10541 10545 10553 10560 10569 10578 10582 10586 10590 10591 10591 10592 10592 10590 10588 10586 10585 10585 10586 10591 10596 10599 10602 10605 10609 10613
10442 10450 10452 10457 10458 10460 10461 10461 10465 10468 10476 10488 10497 10507 10515 10519 10521 10521 10527 10535 10546 10555 10561 10569 10576 10579 10584 10586 10587 10587 10587 10587 10586 10584 10584 10583 10583 10585 10588 10592 10595 10597 10599 10602
10426 10431 10438 10443 10444 10444 10448 10451 10456 10462 10474 10485 10493 10501 10502 10500 10503 10512 10521 10530 10540 10547 10554 10560 10567 10573 10577 10581 10582 10583 10583 10583 10583 10583 10582 10582 10582 10581 10582 10586 10588 10590 10593 10596
10409 10414 10424 10425 10430 10430 10436 10441 10448 10455 10465 10475 10485 10494 10486 10494 10505 10517 10528 10533 10535 10540 10547 10552 10560 10566 10570 10574 10576 10577 10579 10578 10579 10579 10579 10579 10579 10580 10582 10582 10583 10585 10588 10590
10394 10397 10405 10411 10415 10420 10426 10434 10440 10447 10457 10464 10478 10481 10480 10489 10501 10513 10520 10527 10529 10534 10541 10546 10553 10559 10563 10567 10570 10573 10574 10575 10574 10574 10575 10575 10576 10575 10575 10576 10577 10580 10582 10583
10378 10380 10390 10396 10402 10409 10417 10425 10432 10439 10449 10458 10470 10474 10476 10487 10500 10510 10516 10521 10525 10529 10536 10542 10547 10553 10556 10561 10564 10567 10568 10570 10570 10570 10571 10571 10572 10573 10572 10572 10572 10572 10573 10575
10362 10366 10376 10383 10389 10399 10407 10417 10424 10432 10441 10449 10461 10469 10471 10479 10492 10502 10508 10514 10521 10523 10527 10532 10538 10542 10547 10554 10556 10559 10562 10564 10565 10566 10566 10566 10567 10568 10569 10569 10569 10569 10569 10570
10346 10353 10363 10368 10379 10388 10398 10407 10415 10423 10433 10442 10450 10460 10463 10469 10486 10491 10497 10505 10511 10515 10518 10525 10531 10536 10543 10546 10549 10551 10554 10557 10557 10558 10560 10561 10561 10562 10563 10564 10564 10565 10566 10566
10330 10340 10349 10357 10369 10377 10386 10396 10405 10414 10425 10434 10442 10452 10456 10462 10474 10482 10487 10494 10500 10506 10511 10518 10522 10527 10534 10537 10540 10542 10543 10546 10547 10549 10552 10553 10555 10557 10557 10557 10556 10557 10558 10559
10315 10326 10336 10346 10357 10366 10376 10385 10395 10404 10417 10425 10436 10441 10450 10454 10463 10475 10480 10485 10491 10497 10502 10508 10512 10517 10522 10526 10530 10531 10534 10536 10538 10539 10543 10544 10545 10547 10550 10550 10550 10549 10549 10549
10299 10312 10321 10331 10343 10354 10361 10373 10384 10395 10405 10417 10424 10433 10439 10446 10453 10462 10471 10477 10482 10487 10494 10500 10504 10507 10511 10514 10518 10522 10526 10527 10528 10531 10532 10533 10535 10536 10537 10539 10539 10540 10539 10539
10282 10292 10304 10315 10329 10340 10350 10360 10370 10382 10394 10407 10414 10426 10432 10435 10442 10449 10458 10466 10472 10478 10484 10489 10493 10496 10499 10502 10506 10509 10513 10516 10518 10521 10522 10522 10524 10525 10525 10527 10528 10527 10527 10527
10272 10280 10291 10302 10315 10328 10335 10344 10359 10373 10383 10395 10406 10414 10424 10428 10431 10436 10447 10455 10461 10467 10473 10477 10480 10484 10487 10491 10495 10498 10501 10504 10505 10507 10510 10511 10512 10513 10513 10514 10515 10515 10514 10515
10257 10267 10279 10291 10302 10316 10321 10332 10349 10360 10374 10384 10393 10407 10416 10420 10422 10430 10434 10440 10447 10453 10457 10460 10463 10467 10472 10477 10481 10485 10489 10492 10493 10494 10495 10497 10498 10498 10500 10501 10502 10502 10501 10500
10244 10258 10271 10281 10292 10303 10310 10322 10332 10348 10360 10372 10384 10397 10405 10414 10417 10423 10427 10430 10432 10436 10441 10445 10450 10453 10459 10464 10468 10472 10477 10479 10481 10482 10482 10482 10482 10483 10484 10485 10485 10486 10487 10486
10236 10247 10258 10270 10279 10289 10298 10311 10324 10340 10349 10360 10370 10384 10393 10399 10406 10410 10413 10416 10417 10421 10425 10430 10434 10437 10444 10449 10454 10458 10461 10464 10466 10467 10468 10468 10469 10468 10468 10468 10468 10468 10469 10467
10229 10240 10249 10255 10267 10281 10286 10299 10312 10325 10337 10351 10358 10369 10376 10375 10382 10391 10397 10401 10401 10408 10412 10414 10418 10421 10425 10432 10438 10443 10445 10448 10451 10452 10453 10453 10453 10454 10454 10453 10452 10451 10450 10448
10218 10227 10233 10242 10255 10264 10272 10289 10300 10311 10324 10337 10348 10356 10359 10361 10373 10379 10383 10386 10388 10394 10398 10401 10403 10407 10411 10414 10417 10420 10425 10430 10433 10434 10435 10435 10435 10435 10435 10435 10435 10434 10433 10431
10207 10215 10223 10233 10247 10255 10265 10278 10288 10296 10307 10319 10332 10340 10346 10350 10357 10361 10367 10368 10374 10378 10381 10385 10391 10395 10397 10399 10401 10404 10406 10408 10410 10411 10414 10415 10415 10415 10415 10414 10415 10415 10414 10412
10197 10203 10209 10226 10237 10246 10252 10264 10274 10283 10292 10308 10317 10321 10325 10329 10329 10336 10339 10358 10361 10364 10368 10370 10373 10376 10378 10380 10381 10383 10385 10386 10387 10388 10389 10391 10392 10392 10392 10392 10392 10391 10390 10389
10190 10200 10212 10223 10229 10235 10243 10251 10261 10269 10278 10289 10299 10305 10308 10312 10319 10325 10334 10339 10344 10347 10350 10354 10357 10357 10357 10359 10361 10364 10365 10365 10365 10365 10366 10367 10367 10367 10367 10366 10366 10365 10363 10363
10182 10196 10205 10210 10214 10221 10230 10235 10243 10254 10265 10274 10281 10287 10291 10294 10300 10306 10312 10318 10323 10326 10330 10335 10337 10340 10341 10343 10344 10345 10346 10346 10345 10344 10344 10343 10342 10342 10341 10339 10337 10336 10335 10333